STARLINK-33922, 63698

Orbit data source: Space-Track

STARLINK-33922, 63698 is a payload satellite owned by SpaceX/Seattle (US) in LEO that was launched on Mon, 28 Apr 2025 UTC via an FALCON 9 launch vehicle from the Air Force Western Test Range (AFWTR). Payload-class satellites include a variety of spacecraft equipped with specific instruments for various scientific and technological missions. These include communications satellites like Starlink; space stations such as the ISS; scientific satellites like the Hubble; Earth observation satellites from companies like Planet Labs, Umbra, and HawkEye 360; GPS; miniature CubeSats for education and research; and military/defense satellites.

Loading next visibility...
Identifier
63698, 2025-087B
Orbit
LEO
Country
Flag of USUS
Related business
Manufacturer
SpaceX/Seattle
Mission
Operational Commercial Communications
Bus & Motor
STARLINK V2MO, Unknown motor
Mass
575 kg wet, ~530 kg dry
Launch date (UTC)
2025-04-28 (8 months ago)
Launch vehicle
FALCON 9
Launch site
Air Force Western Test Range (AFWTR)
Object type
Payload
Rocket body
Debris
Shape & HBR
Box + 2 Pan, 17.7 m
Radar Cross Section
36.964 m², Large (>1 m²)

Expand to show TLE details & history
Last TLE update: 17 hours ago

TLE from 17 hours ago
0 STARLINK-33922
1 63698U 25087B   25348.91468459  .00045711  00000-0  15446-2 0  9992
2 63698  53.1598 253.0861 0000575  79.6724 280.4342 15.30229399 36210
Epoch: 2025-12-14T21:57Z
TLE epoch observation values (Epoch: 2025-12-14T21:57:08.748Z)
Latitude
0.00001°
Longitude
-160.02111°
Altitude
475.956 km
Speed
7.629 km/s
True Right ascension
16h 52m 20s
True Declination
0° 00' 00"
Sunlit
Object was in daylight at epoch
Visualization orbit readout
Latitude
Unknown
Longitude
Unknown
Altitude
Unknown
Speed
Unknown
Apparent Right ascension
Unknown
Apparent Declination
Unknown
Sunlit
N/A
Visualization observer readout
Local Sidereal Time
13:22:42
Azimuth
Unknown
Elevation
Unknown
Doppler factor
Unknown
Orbital elements
Apogee altitude
475.778 km
Perigee altitude
474.99 km
Semi-major axis
6,853.521 km
Eccentricity
0.00006
Inclination
53.1598°
RAAN
253.0861°
Arg. of periapsis
79.6724°
True anomaly
280.42772°
Mean anomaly
280.4342°
Eccentric anomaly
280.43096°
Mean motion
3.82536 °/min
Orbital period
94.11 mins
BSTAR
0.0015446
Loading maneuver chart data...
Computing Atmospheric mass density...
Loading historical data...
Loading historical data...
Loading historical data...
Loading historical data...
Loading historical data...
Loading historical data...
Loading historical data...

Documentation

Showing up to 5 results
|